Martin City, MT (59926)

1:24 PM MDT on September 02, 2015 (GMT -0600)
Glacier Hills West | | Change Station
CLOSE
Current Station
Personal Weather Station
Location: Martin City, MT
Elevation: 3450 ft
Nearby Weather Stations

Elev 3450 ft 48.38 °N, 114.04 °W | Updated 0 second ago

Mostly Cloudy
Mostly Cloudy
71.1 °F
Feels Like 76 °F
N
0.0
Wind Variable Wind from ESE
Gusts 0.0 mph

Today
High -- | Low -- °F
--% Chance of Precip.
Yesterday
High -- | Low -- °F
Precip. -- in
6:54 AM 8:15 PM
Waning Gibbous, 78% visible
Pressure 29.65 in
Visibility 10.0 miles
Clouds Clear
Heat Index 76 °F
Dew Point 35 °F
Humidity 27%
Rainfall 0.00 in
Snow Depth Not available.
UV 8 out of 12
Pollen 7.90 out of 12
Air Quality Not available.
Flu Activity Not available.
METAR KCTB 021856Z AUTO 26021G30KT 10SM CLR 24/02 A2973 RMK AO2 PK WND 26031/1845 SLP038 T02440017
Pressure 29.65 in
Visibility 10.0 miles
Clouds Clear
Heat Index 76 °F
Dew Point 35 °F
Humidity 27%
Rainfall 0.00 in
Snow Depth Not available.
UV 8 out of 12
Pollen 7.90 out of 12
Air Quality Not available.
Flu Activity Not available.
METAR KCTB 021856Z AUTO 26021G30KT 10SM CLR 24/02 A2973 RMK AO2 PK WND 26031/1845 SLP038 T02440017

10-Day Weather Forecast

×

Almanac

Astronomy

Sep. 02, 2015 Rise Set
Actual Time
Civil Twilight
Nautical Twilight
Astronomical Twilight
Moon
Length of Visible Light
Length of Day
Tomorrow will be .
, % of the Moon is Illuminated

Today's Extremes

State Highs State Lows

Community

WunderPhotos

Upload Photos

1,851,799 photos uploaded!

WunderBlogs® & News

Nearby

Air Quality

  Air Quality AQ Index Pollutant
Not available.

Snow Depth

Station Depth Elevation

Earthquake Activity

City Distance Mag. Time & Date
Minimum magnitude displayed is 2.5.

Coastal Water Temperatures

Place Temperature

Stations

Nearby Weather Stations

Station Location Temp. Windchill Dew Point Humidity Wind Precip. Elev Updated Type